Location: Gradaro
(45.0833°N, 10.8833°E)
Time: 21:31:54
(UTC+00:00)

FALCON 9 DEB - Pass Details

Date: 29 November 2020
Orbit: 373 x 391 km, 53.0° (Epoch: 20 January)

Event Time Altitude Azimuth Distance (km) Brightness Sun altitude
Exits shadow 04:23:47 43° 56° (ENE) 567 4.0 -22.2°
Drops below altitude 10° 04:26:05 10° 57° (ENE) 1,444 6.4 -21.8°
Sets 04:28:10 0° 58° (ENE) 2,307 7.5 -21.4°
